TimeMST,TemperatureF,Dew PointF,Humidity,Sea Level PressureIn,VisibilityMPH,Wind Direction,Wind SpeedMPH,Gust SpeedMPH,PrecipitationIn,Events,Conditions,WindDirDegrees,DateUTC
12:53 AM,39.9,14.0,35,29.56,10.0,West,27.6,38.0,N/A,,Clear,270,2012-12-18 07:53:00
1:53 AM,39.0,15.1,38,29.58,10.0,West,20.7,33.4,N/A,,Clear,270,2012-12-18 08:53:00
2:53 AM,37.0,14.0,39,29.61,10.0,West,19.6,26.5,N/A,,Clear,280,2012-12-18 09:53:00
3:53 AM,34.0,12.9,42,29.63,10.0,West,15.0,21.9,N/A,,Clear,280,2012-12-18 10:53:00
4:53 AM,33.1,12.9,43,29.67,10.0,West,13.8,-,N/A,,Clear,270,2012-12-18 11:53:00
5:53 AM,28.9,12.9,51,29.71,10.0,WNW,6.9,-,N/A,,Clear,300,2012-12-18 12:53:00
6:53 AM,28.9,14.0,54,29.73,10.0,NNW,9.2,-,N/A,,Clear,330,2012-12-18 13:53:00
7:53 AM,30.9,14.0,50,29.75,10.0,WNW,10.4,-,N/A,,Clear,300,2012-12-18 14:53:00
8:53 AM,33.1,14.0,46,29.76,10.0,WNW,10.4,-,N/A,,Clear,290,2012-12-18 15:53:00
9:53 AM,36.0,15.1,43,29.76,10.0,WNW,12.7,-,N/A,,Clear,290,2012-12-18 16:53:00
10:53 AM,39.9,9.0,28,29.75,10.0,West,15.0,24.2,N/A,,Clear,280,2012-12-18 17:53:00
11:53 AM,41.0,3.9,21,29.73,10.0,West,18.4,24.2,N/A,,Clear,280,2012-12-18 18:53:00
12:53 PM,41.0,1.0,19,29.71,10.0,WNW,18.4,-,N/A,,Scattered Clouds,290,2012-12-18 19:53:00
1:53 PM,42.1,-0.9,17,29.70,10.0,WNW,20.7,25.3,N/A,,Mostly Cloudy,290,2012-12-18 20:53:00
2:53 PM,41.0,-0.0,18,29.71,10.0,WNW,19.6,25.3,N/A,,Overcast,300,2012-12-18 21:53:00
3:53 PM,37.9,1.0,21,29.73,10.0,WNW,16.1,23.0,N/A,,Overcast,290,2012-12-18 22:53:00
4:53 PM,37.0,1.9,23,29.75,10.0,WNW,10.4,-,N/A,,Overcast,290,2012-12-18 23:53:00
5:53 PM,36.0,3.0,25,29.78,10.0,West,9.2,-,N/A,,Overcast,280,2012-12-19 00:53:00
6:53 PM,35.1,3.9,27,29.80,10.0,Calm,Calm,-,N/A,,Overcast,0,2012-12-19 01:53:00
7:53 PM,32.0,5.0,32,29.82,10.0,North,-9999.0,-,N/A,,Overcast,0,2012-12-19 02:53:00
8:53 PM,32.0,6.1,34,29.82,10.0,Calm,Calm,-,N/A,,Overcast,0,2012-12-19 03:53:00
9:53 PM,32.0,6.1,34,29.82,10.0,NW,3.5,-,N/A,,Overcast,310,2012-12-19 04:53:00
10:53 PM,30.0,21.0,69,29.83,6.0,NNW,4.6,-,0.00,Snow,Light Snow,340,2012-12-19 05:53:00
11:53 PM,30.0,17.1,59,29.81,10.0,NNW,8.1,-,0.00,,Overcast,340,2012-12-19 06:53:00